Weather History for Bryce Canyon, UT

Change the Weather History Date:

Monday, December 10, 2012

  Actual Average Record
Temperature  
Mean Temperature 24 °F -  
Max Temperature 39 °F 37 °F 55 °F (1977)
Min Temperature 10 °F 12 °F -13 °F (2013)
Degree Days  
Heating Degree Days 40    
Moisture  
Dew Point 12 °F    
Average Humidity 61    
Maximum Humidity 77    
Minimum Humidity 43    
Precipitation  
Precipitation 0.00 in - - ()
Sea Level Pressure  
Sea Level Pressure 30.17 in    
Wind  
Wind Speed 11 mph (NW)    
Max Wind Speed 23 mph    
Max Gust Speed 31 mph    
Visibility 10 miles    
Events      
Averages and records for this station are not official NWS values.
T = Trace of Precipitation, MM = Missing Value Source: NWS Daily Summary

Daily Weather History Graph

Daily Weather History Graph

Search for Another Location

Airport:

Trip Planner

Search our weather history database for the weather conditions in past years. The results will help you decide how hot, cold, wet, or windy it might be!

Date:

Astronomy

Dec. 10, 2012 Rise Set
Actual Time 7:33 AM MST 5:09 PM MST
Civil Twilight 7:04 AM MST 5:39 PM MST
Nautical Twilight 6:31 AM MST 6:12 PM MST
Astronomical Twilight 5:59 AM MST 6:43 PM MST
Moon 4:23 AM MST (12/10) 3:00 PM MST (12/10)
Length of Visible Light 10h 35m
Length of Day
9h 36m
Waning Crescent, 10% of the Moon is Illuminated
Dec 10
Waning Crescent
Dec 13
New
Dec 19
First Quarter
Dec 28
Full
Jan 4
Last Quarter

Hourly Weather History & Observations

Time (MST) Temp. Windchill Dew Point Humidity Pressure Visibility Wind Dir Wind Speed Gust Speed Precip Events Conditions
12:53 AM 12.9 °F -0.2 °F 3.0 °F 65% 30.23 in 10.0 mi NW 10.4 mph - N/A   Clear
1:53 AM 10.9 °F -1.8 °F 3.9 °F 73% 30.25 in 10.0 mi WNW 9.2 mph - N/A   Clear
2:53 AM 12.9 °F 1.6 °F 3.9 °F 67% 30.25 in 10.0 mi WNW 8.1 mph - N/A   Clear
3:53 AM 10.9 °F -2.6 °F 3.9 °F 73% 30.25 in 10.0 mi WNW 10.4 mph - N/A   Clear
4:53 AM 10.9 °F -1.8 °F 3.9 °F 73% 30.25 in 10.0 mi West 9.2 mph - N/A   Clear
5:53 AM 15.1 °F 2.5 °F 5.0 °F 64% 30.25 in 10.0 mi WNW 10.4 mph - N/A   Clear
6:53 AM 17.1 °F 5.8 °F 7.0 °F 65% 30.26 in 10.0 mi NW 9.2 mph - N/A   Clear
7:53 AM 12.0 °F - 6.1 °F 77% 30.28 in 10.0 mi Calm Calm - N/A   Clear
8:53 AM 21.9 °F 13.4 °F 10.9 °F 63% 30.25 in 10.0 mi West 6.9 mph - N/A   Clear
9:53 AM 30.9 °F 20.7 °F 16.0 °F 54% 30.20 in 10.0 mi WNW 13.8 mph 21.9 mph N/A   Clear
10:53 AM 36.0 °F 29.0 °F 19.9 °F 52% 30.17 in 10.0 mi NNW 9.2 mph 27.6 mph N/A   Clear
11:53 AM 37.0 °F 26.2 °F 19.9 °F 50% 30.15 in 10.0 mi NW 21.9 mph 29.9 mph N/A   Clear
12:53 PM 39.0 °F 29.0 °F 19.0 °F 45% 30.12 in 10.0 mi NW 20.7 mph 29.9 mph N/A   Clear
1:53 PM 37.9 °F 27.1 °F 18.0 °F 45% 30.09 in 10.0 mi NW 23.0 mph 31.1 mph N/A   Clear
2:53 PM 37.9 °F 28.2 °F 17.1 °F 43% 30.07 in 10.0 mi NW 18.4 mph 29.9 mph N/A   Clear
3:53 PM 36.0 °F 26.7 °F 16.0 °F 44% 30.10 in 10.0 mi NW 15.0 mph 27.6 mph N/A   Mostly Cloudy
4:53 PM 33.1 °F 25.5 °F 14.0 °F 46% 30.12 in 10.0 mi NW 9.2 mph - N/A   Partly Cloudy
5:53 PM 30.0 °F 20.0 °F 16.0 °F 56% 30.11 in 10.0 mi NW 12.7 mph - N/A   Clear
6:53 PM 27.0 °F 17.3 °F 16.0 °F 63% 30.12 in 10.0 mi NW 10.4 mph - N/A   Clear
7:53 PM 24.1 °F 16.0 °F 16.0 °F 71% 30.16 in 10.0 mi NNW 6.9 mph - N/A   Clear
8:53 PM 27.0 °F 18.0 °F 17.1 °F 66% 30.09 in 10.0 mi NW 9.2 mph - N/A   Clear
10:53 PM 27.0 °F 15.6 °F 17.1 °F 66% 30.01 in 10.0 mi NW 13.8 mph - N/A   Clear
11:53 PM 23.0 °F 13.9 °F 16.0 °F 74% 30.05 in 10.0 mi NNW 8.1 mph - N/A   Clear